Location: Burbank
(38.7788°N, 114.0429°W)
Time: 10:59:17
(UTC+00:00)

Vanguard 2 Rocket - Pass Details

Date: 15 May 2026
Orbit: 553 x 3286 km, 32.9° (Epoch: 11 June)

Event Time Altitude Azimuth Distance (km) Brightness Sun altitude
Rises 19:36:49 0° 254° (WSW) 5,473 11.0 70.2°
Reaches altitude 10° 19:39:53 10° 252° (WSW) 4,772 10.8 70.2°
Maximum altitude 19:54:44 71° 172° (S) 3,117 12.3 69.7°
Drops below altitude 10° 20:14:49 10° 94° (E) 6,192 11.2 68.2°
Sets 20:19:27 0° 93° (E) 7,106 11.3 67.8°
